sat.trackr.live / text

‹ back to catalog

STARLINK-32639

NORAD 62153 · 2024-224Q

PAYLOAD ACTIVE UNKNOWN

§ Identity

Operator
Country
US
Launch date
2024-11-30
Launch site
AFETR
Launch vehicle
Mass (kg)
RCS (m²)

Purposes: comms

External: N2YO · Heavens-Above · Gunter

§ Orbital elements

Epoch: 2026-05-24T23:15:22.106304Z

Period
94.27 min
Inclination
43.0027°
Eccentricity
0.0001396
Mean motion
15.27589207 rev/d
Perigee alt
482.1 km
Apogee alt
484.0 km
Semi-major
6,861.2 km
B*
4.3659e-4
RAAN
87.5131°
Arg perigee
255.6880°
Mean anomaly
104.3816°
Rev number
8,398

§ Raw data

STARLINK-326391 62153U 24224Q   26144.96900586  .00011774  00000+0  43659-3 0  99902 62153  43.0027  87.5131 0001396 255.6880 104.3816 15.27589207 83980

JSON: /api/v1/satellites/62153 · /tle

For live sub-satellite position, see the globe view (requires WebGL).

§ Visibility from observer

Set your observer location to see the next 7 days of passes ≥ 10°. The values pass through the URL so the page stays shareable.

No JS? Fill the form by hand. The geolocation button needs JavaScript.